When you browse on this site, cookies collect data to enhance your experience and personalize the content and advertising you see.
Visit our Privacy Policy to learn more. By continuing to use the site, you agree to this use of cookies and data.
  • In Switzerland
  • List of Countries
  • For 7 days
  • Water Temperature
  • Weather Map
  • Weather Widgets
  • user-avatar
    Login

    Hourly Weather Chamonix

    Today, 15 November, Friday

    Time Temperature Precipitation Wind Pressure Humidity
    00:00 -1°C° 0 mm 2 mps 636 mmHg 92%
    01:00 -1°C° 1.3 mm 2 mps 636 mmHg 94%
    02:00 -2°C° 1.3 mm 2 mps 635 mmHg 95%
    03:00 0°C° 1.3 mm 1 mps 635 mmHg 97%
    04:00 0°C° 2.1 mm 1 mps 636 mmHg 97%
    05:00 0°C° 2.1 mm 1 mps 637 mmHg 97%
    06:00 -1°C° 2.1 mm 1 mps 637 mmHg 97%
    07:00 0°C° 0.2 mm 1 mps 638 mmHg 95%
    08:00 0°C° 0.2 mm 1 mps 639 mmHg 92%
    09:00 +1°C° 0.2 mm 1 mps 639 mmHg 90%
    10:00 +2°C° 0 mm 1 mps 640 mmHg 89%
    11:00 +3°C° 0 mm 1 mps 640 mmHg 88%
    12:00 +3°C° 0 mm 1 mps 640 mmHg 87%
    13:00 +3°C° 0 mm 1 mps 640 mmHg 89%
    14:00 +2°C° 0 mm 1 mps 640 mmHg 92%
    15:00 +1°C° 0 mm 1 mps 640 mmHg 94%
    16:00 0°C° 0.1 mm 1 mps 640 mmHg 93%
    17:00 -1°C° 0.1 mm 1 mps 640 mmHg 92%
    18:00 -4°C° 0.1 mm 2 mps 640 mmHg 91%
    19:00 -4°C° 0 mm 2 mps 640 mmHg 90%
    20:00 -4°C° 0 mm 2 mps 640 mmHg 89%
    21:00 -5°C° 0 mm 2 mps 640 mmHg 88%
    22:00 -5°C° 0 mm 2 mps 640 mmHg 88%
    23:00 -4°C° 0 mm 2 mps 641 mmHg 88%

    Tomorrow, 16 November, Saturday

    Time Temperature Precipitation Wind Pressure Humidity
    00:00 -4°C° 0 mm 2 mps 641 mmHg 87%
    01:00 -5°C° 0.1 mm 2 mps 641 mmHg 88%
    02:00 -5°C° 0.1 mm 2 mps 641 mmHg 88%
    03:00 -5°C° 0.1 mm 2 mps 641 mmHg 88%
    04:00 -5°C° 0 mm 2 mps 641 mmHg 88%
    05:00 -5°C° 0 mm 2 mps 642 mmHg 88%
    06:00 -6°C° 0 mm 2 mps 642 mmHg 88%
    07:00 -4°C° 0 mm 2 mps 643 mmHg 87%
    08:00 -3°C° 0 mm 2 mps 644 mmHg 87%
    09:00 -2°C° 0 mm 2 mps 645 mmHg 86%
    10:00 -1°C° 0 mm 2 mps 645 mmHg 86%
    11:00 +1°C° 0 mm 2 mps 646 mmHg 86%
    12:00 +2°C° 0 mm 2 mps 646 mmHg 86%
    13:00 +2°C° 0 mm 1 mps 646 mmHg 88%
    14:00 +1°C° 0 mm 1 mps 645 mmHg 90%
    15:00 +1°C° 0 mm 1 mps 645 mmHg 92%
    16:00 -3°C° 0 mm 2 mps 645 mmHg 91%
    17:00 -4°C° 0 mm 2 mps 645 mmHg 90%
    18:00 -6°C° 0 mm 2 mps 644 mmHg 89%
    19:00 -6°C° 0 mm 2 mps 644 mmHg 88%
    20:00 -6°C° 0 mm 2 mps 644 mmHg 87%
    21:00 -6°C° 0 mm 2 mps 644 mmHg 87%
    22:00 -6°C° 0 mm 2 mps 644 mmHg 85%
    23:00 -6°C° 0 mm 2 mps 643 mmHg 83%

    Day after tomorrow, 17 November, Sunday

    Time Temperature Precipitation Wind Pressure Humidity
    00:00 -6°C° 0 mm 2 mps 643 mmHg 82%
    01:00 -6°C° 0 mm 2 mps 642 mmHg 79%
    02:00 -4°C° 0 mm 1 mps 642 mmHg 76%
    03:00 -4°C° 0 mm 1 mps 641 mmHg 73%
    04:00 -3°C° 0 mm 1 mps 641 mmHg 73%
    05:00 -3°C° 0 mm 1 mps 640 mmHg 73%
    06:00 -3°C° 0 mm 1 mps 640 mmHg 73%
    07:00 -3°C° 0 mm 0 mps 640 mmHg 75%
    08:00 -2°C° 0 mm 0 mps 640 mmHg 76%
    09:00 -1°C° 0 mm 0 mps 640 mmHg 77%
    10:00 0°C° 0.2 mm 1 mps 639 mmHg 81%
    11:00 0°C° 0.2 mm 1 mps 639 mmHg 85%
    12:00 0°C° 0.2 mm 1 mps 639 mmHg 89%
    13:00 0°C° 0.2 mm 1 mps 639 mmHg 91%
    14:00 -1°C° 0.2 mm 1 mps 639 mmHg 93%
    15:00 -1°C° 0.2 mm 1 mps 639 mmHg 95%
    16:00 -1°C° 0.2 mm 1 mps 640 mmHg 96%
    17:00 -3°C° 0.2 mm 0 mps 640 mmHg 97%
    18:00 -3°C° 0.2 mm 0 mps 640 mmHg 97%
    19:00 -4°C° 0.1 mm 0 mps 641 mmHg 97%
    20:00 -4°C° 0.1 mm 0 mps 641 mmHg 96%
    21:00 -5°C° 0.1 mm 0 mps 641 mmHg 96%
    22:00 -5°C° 0.1 mm 0 mps 641 mmHg 95%
    23:00 -6°C° 0.1 mm 1 mps 641 mmHg 95%

    18 November, Monday

    Time Temperature Precipitation Wind Pressure Humidity
    00:00 -6°C° 0.1 mm 1 mps 641 mmHg 95%
    01:00 -6°C° 0.1 mm 1 mps 642 mmHg 95%
    02:00 -6°C° 0.1 mm 1 mps 642 mmHg 96%
    03:00 -6°C° 0.1 mm 1 mps 642 mmHg 96%
    04:00 -6°C° 0.1 mm 1 mps 643 mmHg 96%
    05:00 -6°C° 0.1 mm 1 mps 643 mmHg 95%
    06:00 -6°C° 0.1 mm 1 mps 644 mmHg 95%
    07:00 -3°C° 0 mm 1 mps 645 mmHg 91%
    08:00 -3°C° 0 mm 0 mps 645 mmHg 88%
    09:00 -2°C° 0 mm 0 mps 646 mmHg 85%
    10:00 -1°C° 0 mm 0 mps 646 mmHg 85%
    11:00 0°C° 0 mm 1 mps 647 mmHg 85%
    12:00 +1°C° 0 mm 1 mps 647 mmHg 85%
    13:00 +1°C° 0 mm 1 mps 647 mmHg 88%
    14:00 0°C° 0 mm 1 mps 647 mmHg 91%
    15:00 -1°C° 0 mm 0 mps 647 mmHg 95%
    16:00 -2°C° 0 mm 1 mps 647 mmHg 94%
    17:00 -3°C° 0 mm 1 mps 647 mmHg 93%
    18:00 -4°C° 0 mm 1 mps 647 mmHg 92%
    19:00 -6°C° 0 mm 1 mps 647 mmHg 89%
    20:00 -6°C° 0 mm 1 mps 647 mmHg 86%
    21:00 -6°C° 0 mm 1 mps 648 mmHg 82%
    22:00 -6°C° 0 mm 1 mps 648 mmHg 81%
    23:00 -7°C° 0 mm 1 mps 648 mmHg 79%

    19 November, Tuesday

    Time Temperature Precipitation Wind Pressure Humidity
    00:00 -7°C° 0 mm 1 mps 648 mmHg 77%
    01:00 -7°C° 0 mm 1 mps 648 mmHg 76%
    02:00 -7°C° 0 mm 1 mps 648 mmHg 76%
    03:00 -7°C° 0 mm 1 mps 647 mmHg 75%
    04:00 -7°C° 0 mm 1 mps 647 mmHg 74%
    05:00 -7°C° 0 mm 1 mps 647 mmHg 74%
    06:00 -7°C° 0 mm 1 mps 647 mmHg 73%
    07:00 -4°C° 0 mm 1 mps 648 mmHg 72%
    08:00 -2°C° 0 mm 1 mps 649 mmHg 71%
    09:00 -1°C° 0 mm 0 mps 649 mmHg 70%
    10:00 0°C° 0 mm 0 mps 649 mmHg 71%
    11:00 +1°C° 0 mm 0 mps 649 mmHg 71%
    12:00 +2°C° 0 mm 0 mps 649 mmHg 71%
    13:00 +1°C° 0 mm 0 mps 648 mmHg 77%
    14:00 0°C° 0 mm 0 mps 648 mmHg 82%
    15:00 0°C° 0 mm 0 mps 648 mmHg 87%
    16:00 -1°C° 0 mm 1 mps 647 mmHg 84%
    17:00 -2°C° 0 mm 1 mps 647 mmHg 81%
    18:00 -3°C° 0 mm 1 mps 647 mmHg 78%
    19:00 -5°C° 0 mm 2 mps 647 mmHg 76%
    20:00 -6°C° 0 mm 2 mps 647 mmHg 73%
    21:00 -6°C° 0 mm 2 mps 648 mmHg 71%
    22:00 -6°C° 0 mm 2 mps 647 mmHg 69%
    23:00 -6°C° 0 mm 2 mps 647 mmHg 67%

    20 November, Wednesday

    Time Temperature Precipitation Wind Pressure Humidity
    00:00 -6°C° 0 mm 2 mps 647 mmHg 66%
    01:00 -6°C° 0 mm 2 mps 647 mmHg 64%
    02:00 -6°C° 0 mm 2 mps 647 mmHg 63%
    03:00 -6°C° 0 mm 2 mps 647 mmHg 61%
    04:00 -6°C° 0 mm 2 mps 647 mmHg 61%
    05:00 -6°C° 0 mm 2 mps 647 mmHg 60%
    06:00 -7°C° 0 mm 3 mps 647 mmHg 60%
    07:00 -5°C° 0 mm 2 mps 647 mmHg 63%
    08:00 -3°C° 0 mm 2 mps 647 mmHg 66%
    09:00 -2°C° 0 mm 2 mps 648 mmHg 69%
    10:00 -1°C° 0 mm 2 mps 648 mmHg 71%
    11:00 +1°C° 0 mm 2 mps 648 mmHg 72%
    12:00 +3°C° 0 mm 2 mps 648 mmHg 74%
    13:00 +2°C° 0 mm 2 mps 647 mmHg 77%
    14:00 +1°C° 0 mm 2 mps 647 mmHg 81%
    15:00 +1°C° 0 mm 2 mps 647 mmHg 84%
    16:00 -1°C° 0 mm 2 mps 646 mmHg 83%
    17:00 -2°C° 0 mm 3 mps 646 mmHg 82%
    18:00 -4°C° 0 mm 3 mps 646 mmHg 82%
    19:00 -4°C° 0.3 mm 3 mps 646 mmHg 84%
    20:00 -4°C° 0.3 mm 3 mps 646 mmHg 87%
    21:00 -4°C° 0.3 mm 3 mps 647 mmHg 89%
    22:00 -2°C° 0.7 mm 3 mps 646 mmHg 90%
    23:00 -2°C° 0.7 mm 3 mps 646 mmHg 92%
    Show more